This demonstration page uses our WeatherBlox Daily Observations layout. Learn more.

Left ArrowRight Arrow

39.08367, -84.50855

Hourly Observations for December 26, 2019

Temp ( °F °C ) Dew Point ( °F °C ) Humidity (%) Winds ( mph kmh ) Pressure ( in mb ) Visibility ( mi km ) Precip ( " mm )
12:53 am 00:53 Clear 37 2.8 36 2.2 96 96 N N/A 30.06 1018 10 16 N/A
1:10 am 01:10 Clear with Mist and Fog 37 2.8 36 2.2 96 96 N N/A 30.08 1019 2 3 N/A
1:39 am 01:39 Clear with Mist and Fog 36 2.2 35 1.7 97 97 N N/A 30.08 1019 3 5 N/A
1:53 am 01:53 Clear 35 1.7 34 1.1 96 96 N N/A 30.07 1018 8 13 N/A
2:53 am 02:53 Clear 36 2.2 36 2.2 100 100 N N/A 30.09 1019 10 16 N/A
3:53 am 03:53 Clear with Mist and Fog 36 2.2 36 2.2 100 100 N N/A 30.09 1019 4 6 N/A
3:58 am 03:58 Clear with Mist and Fog 36 2.2 35 1.7 97 97 N N/A 30.11 1020 2 3 N/A
4:12 am 04:12 Clear with Mist and Fog 36 2.2 36 2.2 100 100 N N/A 30.11 1020 4 6 N/A
4:53 am 04:53 Clear 35 1.7 35 1.7 100 100 N N/A 30.09 1019 7 11 N/A
5:53 am 05:53 Clear 33 0.6 32 undefined 96 96 N N/A 30.11 1020 9 14 N/A
6:53 am 06:53 Clear 33 0.6 33 0.6 100 100 N N/A 30.13 1020 8 13 N/A
7:53 am 07:53 Clear 34 1.1 34 1.1 100 100 N N/A 30.15 1021 10 16 N/A
8:53 am 08:53 Cloudy 38 3.3 38 3.3 100 100 N N/A 30.17 1022 10 16 N/A
9:53 am 09:53 Mostly Cloudy 43 6.1 42 5.6 97 97 N N/A 30.18 1022 10 16 N/A
10:53 am 10:53 Cloudy 48 8.9 43 6.1 83 83 N N/A 30.18 1022 10 16 N/A
11:53 am 11:53 Cloudy 52 11.1 46 7.8 80 80 N N/A 30.15 1021 10 16 N/A
12:53 pm 12:53 Mostly Cloudy 57 13.9 47 8.3 69 69 SSW 5 7 30.13 1020 10 16 N/A
1:53 pm 13:53 Mostly Cloudy 63 17.2 50 10 63 63 SSW 7 11 30.11 1020 10 16 N/A
2:53 pm 14:53 Cloudy 63 17.2 49 9.4 60 60 SSE 7 11 30.11 1020 10 16 N/A
3:53 pm 15:53 Partly Cloudy 62 16.7 49 9.4 62 62 S 8 13 30.11 1020 10 16 N/A
4:53 pm 16:53 Cloudy 61 16.1 50 10 67 67 SSW 6 9 30.13 1020 10 16 N/A
5:53 pm 17:53 Cloudy 59 15 49 9.4 69 69 S 9 15 30.13 1020 10 16 N/A
6:53 pm 18:53 Cloudy 56 13.3 49 9.4 77 77 N N/A 30.13 1020 10 16 N/A
7:53 pm 19:53 Cloudy 58 14.4 50 10 75 75 N N/A 30.14 1021 10 16 N/A
8:53 pm 20:53 Cloudy 58 14.4 50 10 75 75 N N/A 30.15 1021 10 16 N/A
9:53 pm 21:53 Cloudy 57 13.9 49 9.4 74 74 SSW 9 15 30.16 1021 10 16 N/A
10:53 pm 22:53 Cloudy 57 13.9 49 9.4 74 74 SSW 8 13 30.16 1021 10 16 N/A
11:53 pm 23:53 Cloudy 54 12.2 48 8.9 80 80 undefined N/A 30.16 1021 10 16 N/A

Powered by AerisWeather